Location: Unspecified
(35.7250°N, 0.0000°E)
Time: 08:18:37
(UTC+00:00)

Tiros 1 - Pass Details

Date: 29 June 2019
Orbit: 630 x 664 km, 48.4° (Epoch: 16 July)

Event Time Altitude Azimuth Distance (km) Brightness Sun altitude
Rises 02:26:33 0° 308° (NW) 2,936 10.6 -22.0°
Reaches altitude 10° 02:28:55 10° 312° (NW) 2,020 9.7 -21.7°
Maximum altitude 02:33:31 62° 33° (NNE) 712 7.5 -21.2°
Drops below altitude 10° 02:38:05 10° 115° (ESE) 2,001 9.8 -20.6°
Sets 02:40:25 0° 118° (ESE) 2,904 10.6 -20.3°
